Seeley, CA

4:58 PM PST on February 13, 2016 (GMT -0800)
El Centro Naval Air Facility

Weather History for KNJK - January, 2012

Change the Weather History Date:

Saturday, January 7, 2012

  Actual Average Record
Temperature  
Mean Temperature 52 °F -  
Max Temperature 71 °F 66 °F 79 °F (2015)
Min Temperature 32 °F 44 °F 32 °F (2012)
Degree Days  
Heating Degree Days 14    
Growing Degree Days 2 (Base 50)    
Moisture  
Dew Point 32 °F    
Average Humidity 45    
Maximum Humidity 100    
Minimum Humidity 28    
Precipitation  
Precipitation 0.00 in - - ()
Sea Level Pressure  
Sea Level Pressure 30.00 in    
Wind  
Wind Speed 2 mph (North)    
Max Wind Speed 4 mph    
Max Gust Speed -    
Visibility 9 miles    
Events      
Averages and records for this station are not official NWS values.
T = Trace of Precipitation, MM = Missing Value Source: NWS Daily Summary

Daily Weather History Graph

Daily Weather History Graph

Search for Another Location

Airport or City:

Trip Planner

Search our weather history database for the weather conditions in past years. The results will help you decide how hot, cold, wet, or windy it might be!

Date:

Astronomy

Jan. 07, 2012 Rise Set
Actual Time 6:46 AM PST 4:51 PM PST
Civil Twilight 6:18 AM PST 5:18 PM PST
Nautical Twilight 5:48 AM PST 5:49 PM PST
Astronomical Twilight 5:18 AM PST 6:19 PM PST
Moon 3:41 PM PST (1/7) 5:19 AM PST (1/7)
Length of Visible Light 10h 59m
Length of Day
10h 05m
Waxing Gibbous, 98% of the Moon is Illuminated
Jan 7
Waxing Gibbous
Jan 8
Full
Jan 16
Last Quarter
Jan 22
New
Jan 30
First Quarter

Hourly Weather History & Observations

Time (PST) Temp. Windchill Dew Point Humidity Pressure Visibility Wind Dir Wind Speed Gust Speed Precip Events Conditions
12:56 AM 45.0 °F - 30.0 °F 56% 29.96 in 10.0 mi North - - N/A   Clear
1:56 AM 46.0 °F - 30.0 °F 54% 29.97 in 10.0 mi North - - N/A   Clear
2:56 AM 43.0 °F - 27.0 °F 53% 29.95 in 10.0 mi North - - N/A   Clear
3:55 AM - - - N/A% - - North - - N/A   Unknown
3:56 AM 42.1 °F - 26.1 °F 53% 29.96 in 10.0 mi North - - N/A   Clear
4:56 AM 41.0 °F - 27.0 °F 57% 29.97 in 10.0 mi North - - N/A   Clear
5:55 AM - - - N/A% - - North - - N/A   Unknown
5:56 AM 41.0 °F - 27.0 °F 57% 29.98 in 10.0 mi North - - N/A   Clear
6:56 AM 39.0 °F - 28.9 °F 67% 29.99 in 10.0 mi Calm Calm - N/A   Clear
7:56 AM 46.0 °F 44.8 °F 30.9 °F 56% 30.00 in 10.0 mi Variable 3.5 mph - N/A   Clear
8:55 AM - - - N/A% - - North - - N/A   Unknown
8:56 AM 53.1 °F - 30.0 °F 41% 30.02 in 10.0 mi Variable 3.5 mph - N/A   Clear
9:56 AM 59.0 °F - 34.0 °F 39% 30.03 in 10.0 mi Calm Calm - N/A   Clear
10:56 AM 64.9 °F - 36.0 °F 34% 30.01 in 10.0 mi Calm Calm - N/A   Clear
11:56 AM 68.0 °F - 36.0 °F 31% 29.98 in 10.0 mi Variable 3.5 mph - N/A   Clear
12:56 PM 70.0 °F - 37.0 °F 30% 29.96 in 8.0 mi Calm Calm - N/A   Clear
1:56 PM 71.1 °F - 41.0 °F 34% 29.96 in 6.0 mi Variable 3.5 mph - N/A   Clear
2:56 PM 71.1 °F - 36.0 °F 28% 29.96 in 8.0 mi Variable 3.5 mph - N/A   Clear
3:56 PM 70.0 °F - 37.0 °F 30% 29.96 in 7.0 mi North - - N/A   Clear
4:56 PM 64.9 °F - 34.0 °F 32% 29.98 in 6.0 mi North - - N/A   Clear
5:08 PM 32.0 °F - 32.0 °F 100% - - North - - N/A   Unknown
5:56 PM 61.0 °F - 35.1 °F 38% 29.99 in 7.0 mi North - - N/A   Clear
6:56 PM 57.0 °F - 34.0 °F 42% 30.02 in 8.0 mi North - - N/A   Clear
7:56 PM 55.9 °F - 35.1 °F 45% 30.04 in 8.0 mi North - - N/A   Clear
8:56 PM 48.9 °F - 30.0 °F 48% 30.07 in 9.0 mi North - - N/A   Clear
9:55 PM - - - N/A% - - North - - N/A   Unknown
9:56 PM 55.9 °F - 28.9 °F 36% 30.09 in 10.0 mi North - - N/A   Clear
10:56 PM 52.0 °F - 27.0 °F 38% 30.10 in 10.0 mi North - - N/A   Clear
11:55 PM - - - N/A% - - North - - N/A   Unknown
11:56 PM 54.0 °F - 28.9 °F 38% 30.11 in 10.0 mi North - - N/A   Clear